Location: Washington
(38.8950°N, 77.0370°W)
Time: 15:39:50
(UTC-04:00)

IDEFIX/ARIANE 42P - Visible Passes

Search period start: 19 April 2018 00:00
Search period end: 29 April 2018 00:00
Orbit: 784 x 804 km, 98.3° (Epoch: 18 April)

Date Brightness Start Highest point End Pass type
(mag) Time Alt. Az. Time Alt. Az. Time Alt. Az.
19 Apr 4.4 05:26:10 10° NNE 05:30:51 32° E 05:35:30 10° SSE visible
20 Apr 5.3 04:58:51 10° NE 05:02:17 18° E 05:05:43 10° SE visible
22 Apr 3.8 05:40:31 10° NNE 05:45:32 45° E 05:50:32 10° S visible
23 Apr 4.9 05:12:48 10° NE 05:17:03 24° E 05:21:16 10° SSE visible
24 Apr 5.4 04:46:07 10° ENE 04:48:27 13° E 04:50:47 10° ESE visible
26 Apr 4.3 05:27:02 10° NNE 05:31:46 34° E 05:36:30 10° SSE visible
27 Apr 5.2 04:59:39 10° NE 05:03:14 18° E 05:06:49 10° SE visible
